Location: Navajo
(48.7922°N, 105.0603°W)
Time: 20:08:30
(UTC+00:00)

DOVE 4 - Visible Passes

Search period start: 27 June 2022 00:00
Search period end: 07 July 2022 00:00
Orbit: 586 x 798 km, 97.8° (Epoch: 24 June)

Date Brightness Start Highest point End Pass type
(mag) Time Alt. Az. Time Alt. Az. Time Alt. Az.
27 Jun ? 06:35:53 10° NNE 06:40:43 70° ESE 06:43:01 32° S visible
27 Jun ? 08:14:29 10° NNW 08:17:52 19° WNW 08:21:21 10° WSW visible
28 Jun ? 05:38:41 10° NE 05:42:32 23° E 05:44:29 18° ESE visible
28 Jun ? 07:15:38 10° N 07:20:22 54° WNW 07:23:09 25° SW visible
29 Jun ? 06:17:41 10° NNE 06:22:27 49° E 06:24:37 30° SSE visible
29 Jun ? 07:55:46 10° N 07:59:48 27° WNW 08:03:17 13° WSW visible
30 Jun ? 05:21:02 10° NE 05:24:07 16° E 05:26:04 13° ESE visible
30 Jun ? 06:57:15 10° N 07:02:11 77° WNW 07:04:45 30° SSW visible
30 Jun ? 08:36:40 10° NNW 08:39:02 14° NW 08:41:27 10° W visible
01 Jul ? 05:59:35 10° NNE 06:04:08 35° E 06:06:12 25° SE visible
01 Jul ? 07:37:12 10° N 07:41:42 37° WNW 07:44:52 18° WSW visible
02 Jul ? 05:04:05 10° ENE 05:05:38 11° E 05:07:12 10° ESE visible
02 Jul ? 06:38:57 10° NNE 06:43:57 76° ESE 06:46:19 33° S visible
02 Jul ? 08:17:38 10° NNW 08:21:01 19° WNW 08:24:30 10° WSW visible
03 Jul ? 05:41:38 10° NE 05:45:47 25° E 05:47:46 20° SE visible
03 Jul ? 07:18:43 10° N 07:23:34 51° WNW 07:26:26 24° SW visible
04 Jul ? 06:20:43 10° NNE 06:25:41 54° E 06:27:52 32° SSE visible
04 Jul ? 07:58:52 10° N 08:02:57 25° WNW 08:06:33 13° WSW visible
05 Jul ? 05:23:53 10° NE 05:27:21 18° E 05:29:18 15° ESE visible
05 Jul ? 07:00:19 10° N 07:05:22 72° WNW 07:07:59 30° SSW visible
05 Jul ? 08:39:49 10° NNW 08:42:08 13° NW 08:44:29 10° W visible
06 Jul ? 06:02:35 10° NNE 06:07:20 38° E 06:09:24 27° SE visible
06 Jul ? 07:40:17 10° N 07:44:51 35° WNW 07:48:04 18° WSW visible
